Location: Hackbridge
(51.3833°N, 0.1500°W)
Time: 09:50:16
(UTC+00:00)

Cosmos 2263 Rocket - Pass Details

Date: 13 October 2019
Orbit: 825 x 847 km, 71.0° (Epoch: 17 November)

Event Time Altitude Azimuth Distance (km) Brightness Sun altitude
Rises 19:26:04 0° 258° (WSW) 3,401 6.4 -21.5°
Reaches altitude 10° 19:29:05 10° 273° (W) 2,466 5.7 -22.0°
Maximum altitude 19:33:26 22° 324° (NW) 1,761 4.4 -22.6°
Drops below altitude 10° 19:37:46 10° 14° (NNE) 2,463 4.6 -23.3°
Sets 19:40:47 0° 30° (NNE) 3,396 5.2 -23.7°
